[[{"header":{"parameterUnit":"m.s-1","parameterCategory":1,"la1":30.2991,"la2":30.254,"lo1":-89.0895,"lo2":-89.0444,"dy":0.0017,"dx":0.0017,"nx":28,"ny":28,"refTime":"2025-08-28T21:00:00:Z","depth":0,"parameterNumber":2,"parameterNumberName":"U-component_of_WINDS"},"data":[0,0,0,0,0,0,0,0,0,0,0,0,0,0,0,0,0,0,0,0,0,0,0,0,0,0,0,0,0,0,0,0,0,0,0,0,0,0,0,0,0,0,0,0,0,0,0,0,0,0,0,0,0,0,0,0,0,0,-3.0133,-3.0133,0,-3.0206,-3.0207,-3.0208,-3.0241,-3.0241,-3.0241,-3.0241,-3.0307,-3.0309,-3.031,0,0,0,0,0,0,0,0,0,0,0,0,0,-3.0013,-3.0015,-3.0132,-3.0133,-3.0134,-3.0206,-3.0207,-3.0208,-3.0241,-3.0241,-3.0241,-3.0241,-3.0306,-3.0308,-3.0311,0,0,0,0,0,0,0,0,0,0,0,0,0,-3.0073,-3.0016,-3.0132,-3.016,-3.0163,-3.0206,-3.0207,-3.0208,-3.0241,-3.0241,-3.0241,-3.0241,-3.0306,-3.0308,-3.0311,-3.0329,0,0,-3.0319,-3.032,0,0,0,0,0,0,0,0,-3.007,-3.0078,-3.0155,-3.0158,-3.0162,-3.0214,-3.0189,-3.0248,-3.0241,-3.0211,-3.0241,-3.0241,-3.0276,-3.0281,-3.0294,-3.0332,-3.0335,-3.0319,-3.0321,-3.0322,-3.0323,0,0,0,0,0,0,0,-3.0066,-3.0075,-3.0161,-3.0156,-3.016,-3.0166,-3.0174,-3.02,-3.0242,-3.0214,-3.0216,-3.0225,-3.0277,-3.0292,-3.0296,-3.0336,-3.0319,-3.0322,-3.0323,-3.0324,-3.0393,-3.0393,0,0,0,0,0,0,-3.0058,-3.0071,-3.0159,-3.0163,-3.0115,-3.0168,-3.0178,-3.0197,-3.0242,-3.0249,-3.0225,-3.0226,-3.0287,-3.0293,-3.0299,-3.0324,-3.0322,-3.0325,-3.0326,-3.0393,-3.0393,-3.0393,0,0,0,0,0,0,-3.0056,-3.0066,-3.0156,-3.0118,-3.013,-3.017,-3.0192,-3.0199,-3.0213,-3.0251,-3.0258,-3.0232,-3.0287,-3.0295,-3.0322,-3.0326,-3.0326,-3.0328,-3.0393,-3.0393,-3.0393,-3.0373,0,0,0,0,0,0,-3.0052,-3.0065,-3.0074,-3.0118,-3.0132,-3.018,-3.0192,-3.02,-3.0219,-3.0221,-3.026,-3.0266,-3.0288,-3.0318,-3.0325,-3.033,-3.033,-3.0392,-3.0393,-3.0393,-3.0374,-3.0373,-3.0372,0,0,0,0,0,-3.0048,-3.0063,-3.0074,-3.0084,-3.0144,-3.0181,-3.0188,-3.0215,-3.0219,-3.0227,-3.0252,-3.0265,-3.0325,-3.032,-3.0328,-3.0334,-3.0392,-3.0393,-3.0393,-3.0374,-3.0373,-3.0372,0,0,0,0,0,0,-3.0013,-3.0069,-3.0082,-3.0112,-3.0142,-3.0186,-3.0197,-3.0213,-3.024,-3.024,-3.0271,-3.0279,-3.0304,-3.0322,-3.0316,-3.0355,-3.036,-3.0362,-3.0342,-3.0342,-3.0341,-3.0335,-3.0333,0,0,0,0,0,-3.001,-3.0038,-3.0083,-3.0105,-3.012,-3.0156,-3.0173,-3.0192,-3.0222,-3.0234,-3.026,-3.0287,-3.0313,-3.0328,-3.0353,-3.0377,-3.0385,-3.0385,-3.0384,-3.0383,-3.0384,-3.0399,-3.0399,-3.0395,-3.0395,-3.0395,0,0,-3.0002,-3.0036,-3.005,-3.01,-3.0125,-3.0151,-3.0166,-3.0192,-3.0211,-3.0237,-3.0266,-3.0286,-3.0318,-3.0344,-3.0356,-3.0359,-3.0388,-3.0384,-3.0383,-3.0384,-3.0399,-3.04,-3.04,-3.0395,-3.0395,-3.0395,0,0,-3.0,-3.0029,-3.0052,-3.0078,-3.0117,-3.0142,-3.0147,-3.019,-3.0206,-3.0236,-3.0256,-3.0277,-3.032,-3.0342,-3.0359,-3.0369,-3.0382,-3.0376,-3.0371,-3.0385,-3.0385,-3.0386,-3.0389,-3.039,-3.0377,-3.0377,-3.0377,0,-2.9984,-3.0027,-3.006,-3.0087,-3.0107,-3.0136,-3.0158,-3.0181,-3.0225,-3.0237,-3.0241,-3.0297,-3.032,-3.0352,-3.0355,-3.0367,-3.0373,-3.0371,-3.0383,-3.0384,-3.0385,-3.0388,-3.039,-3.0376,-3.0376,-3.0376,-3.0377,0,-3.0005,-3.0034,-3.0047,-3.0094,-3.0116,-3.014,-3.0175,-3.0193,-3.021,-3.0233,-3.0263,-3.0293,-3.0325,-3.0334,-3.035,-3.0369,-3.037,-3.0378,-3.0383,-3.0384,-3.0388,-3.0389,-3.0375,-3.0375,-3.0376,-3.0376,0,0,-2.9981,-3.005,-3.0053,-3.0076,-3.0123,-3.0145,-3.0169,-3.0205,-3.0219,-3.0249,-3.027,-3.0306,-3.0315,-3.0334,-3.0353,-3.0365,-3.0372,-3.0372,-3.0373,-3.0371,-3.0394,-3.0387,-3.0389,-3.0381,-3.0381,-3.0382,-3.0392,0,-2.9986,-3.0036,-3.0068,-3.0103,-3.0131,-3.016,-3.0181,-3.0211,-3.0234,-3.0258,-3.0282,-3.0308,-3.0318,-3.033,-3.0343,-3.0368,-3.0377,-3.0368,-3.0398,-3.0399,-3.0389,-3.0391,-3.0383,-3.0391,-3.0393,-3.0394,-3.0394,0,-2.9998,-3.0032,-3.0072,-3.0118,-3.0131,-3.015,-3.0185,-3.0209,-3.0243,-3.0259,-3.0282,-3.0302,-3.0327,-3.0332,-3.0366,-3.036,-3.0374,-3.0388,-3.0389,-3.0392,-3.0396,-3.0393,-3.0394,-3.0395,-3.0396,-3.0396,-3.0396,0,-2.9977,-3.0032,-3.0064,-3.0082,-3.0136,-3.0149,-3.0172,-3.0207,-3.0226,-3.0257,-3.027,-3.0301,-3.0318,-3.034,-3.0368,-3.0368,-3.04,-3.0406,-3.0412,-3.0411,-3.0416,-3.0415,-3.0419,-3.0426,-3.0426,-3.0426,-3.0426,0,-2.9979,-3.0001,-3.0056,-3.0074,-3.0101,-3.0137,-3.0161,-3.0186,-3.0217,-3.0239,-3.0265,-3.0285,-3.0321,-3.0344,-3.0365,-3.0391,-3.0398,-3.041,-3.0415,-3.0408,-3.0406,-3.0417,-3.0417,-3.0426,-3.0426,-3.0426,-3.0426,0,-2.9959,-2.9996,-3.0032,-3.0083,-3.0096,-3.0113,-3.0155,-3.0174,-3.02,-3.0228,-3.0237,-3.0276,-3.0305,-3.0336,-3.0374,-3.0388,-3.0413,-3.042,-3.0403,-3.0406,-3.041,-3.0409,-3.042,-3.0423,-3.0429,-3.0428,-3.0428,0,-2.9957,-2.9976,-3.0031,-3.005,-3.0074,-3.0103,-3.0125,-3.0161,-3.0182,-3.0224,-3.0237,-3.027,-3.0298,-3.0344,-3.0373,-3.0403,-3.0411,-3.0413,-3.0416,-3.0408,-3.0411,-3.041,-3.0411,-3.0411,-3.0411,-3.0411,-3.0411,0,-2.995,-2.9968,-3.0001,-3.004,-3.0067,-3.0098,-3.013,-3.0143,-3.0185,-3.0207,-3.024,-3.0262,-3.0304,-3.0336,-3.037,-3.039,-3.0407,-3.0411,-3.0413,-3.0405,-3.0394,-3.04,-3.04,-3.041,-3.041,-3.041,-3.041,-3.041,-2.9939,-2.9958,-3.0,-3.0036,-3.0065,-3.0095,-3.0116,-3.0146,-3.0176,-3.0216,-3.0234,-3.0267,-3.0302,-3.035,-3.0371,-3.0395,-3.0399,-3.0404,-3.0405,-3.0405,-3.0403,-3.0392,-3.0401,-3.0401,-3.0402,-3.0402,-3.0402,0,-2.9933,-2.9963,-2.9995,-3.0042,-3.007,-3.0088,-3.0125,-3.0146,-3.0176,-3.0209,-3.0237,-3.0275,-3.0307,-3.0341,-3.0374,-3.0387,-3.0395,-3.0394,-3.0393,-3.0397,-3.0397,-3.0392,-3.0387,-3.0387,-3.0387,-3.0387,-3.0387,-3.0387,-2.9933,-2.9967,-2.9991,-3.0039,-3.0068,-3.0104,-3.0124,-3.0151,-3.0178,-3.0221,-3.0249,-3.0272,-3.0305,-3.0341,-3.037,-3.0379,-3.0389,-3.0386,-3.0397,-3.0396,-3.0397,-3.0398,-3.0393,-3.0388,-3.0388,-3.0395,-3.0395,-3.0395]},{"header":{"parameterUnit":"m.s-1","parameterCategory":1,"la1":30.2991,"la2":30.254,"lo1":-89.0895,"lo2":-89.0444,"dy":0.0017,"dx":0.0017,"nx":28,"ny":28,"refTime":"2025-08-28T21:00:00:Z","depth":0,"parameterNumber":3,"parameterNumberName":"V-component_of_WINDS"},"data":[0,0,0,0,0,0,0,0,0,0,0,0,0,0,0,0,0,0,0,0,0,0,0,0,0,0,0,0,0,0,0,0,0,0,0,0,0,0,0,0,0,0,0,0,0,0,0,0,0,0,0,0,0,0,0,0,0,0,-0.8618,-0.8621,0,-0.8862,-0.8865,-0.8868,-0.9025,-0.9026,-0.9027,-0.9028,-0.9277,-0.9282,-0.9288,0,0,0,0,0,0,0,0,0,0,0,0,0,-0.8289,-0.8294,-0.8618,-0.8621,-0.8624,-0.8862,-0.8865,-0.8868,-0.9025,-0.9026,-0.9027,-0.9028,-0.9275,-0.9282,-0.9288,0,0,0,0,0,0,0,0,0,0,0,0,0,-0.8472,-0.8295,-0.8618,-0.8731,-0.8744,-0.8861,-0.8865,-0.8869,-0.9025,-0.9026,-0.9028,-0.9029,-0.9273,-0.9281,-0.9289,-0.9313,0,0,-0.9316,-0.9319,0,0,0,0,0,0,0,0,-0.8461,-0.8484,-0.8711,-0.8723,-0.8738,-0.8915,-0.884,-0.9018,-0.9024,-0.8918,-0.9028,-0.903,-0.9155,-0.9173,-0.9216,-0.9325,-0.9335,-0.9316,-0.9322,-0.9325,-0.9328,0,0,0,0,0,0,0,-0.8448,-0.8474,-0.8715,-0.8714,-0.873,-0.877,-0.8797,-0.8875,-0.9025,-0.8927,-0.8939,-0.8966,-0.9163,-0.9207,-0.9223,-0.9339,-0.9316,-0.9324,-0.9329,-0.9332,-0.948,-0.9479,0,0,0,0,0,0,-0.8418,-0.8462,-0.8707,-0.8722,-0.86,-0.8775,-0.8806,-0.8856,-0.9025,-0.9052,-0.8964,-0.8972,-0.9192,-0.9213,-0.9232,-0.9271,-0.9325,-0.9333,-0.9338,-0.9482,-0.948,-0.9479,0,0,0,0,0,0,-0.841,-0.8438,-0.8697,-0.8596,-0.8632,-0.8779,-0.8834,-0.886,-0.8905,-0.9053,-0.9081,-0.8982,-0.9194,-0.922,-0.9292,-0.9282,-0.9337,-0.9345,-0.9483,-0.9481,-0.9479,-0.9348,0,0,0,0,0,0,-0.84,-0.8434,-0.8444,-0.8595,-0.8636,-0.8752,-0.8834,-0.8864,-0.892,-0.8932,-0.9077,-0.9102,-0.9197,-0.9278,-0.93,-0.9294,-0.9352,-0.9484,-0.9482,-0.948,-0.9353,-0.9342,-0.9331,0,0,0,0,0,-0.8387,-0.8397,-0.8444,-0.8473,-0.8652,-0.8751,-0.8775,-0.8884,-0.8918,-0.893,-0.9025,-0.9098,-0.928,-0.9284,-0.9311,-0.9307,-0.9486,-0.9483,-0.948,-0.9358,-0.9344,-0.9332,0,0,0,0,0,0,-0.8241,-0.8419,-0.8473,-0.8531,-0.8625,-0.8777,-0.8795,-0.8865,-0.895,-0.8958,-0.909,-0.9121,-0.918,-0.9251,-0.9253,-0.9339,-0.9391,-0.9394,-0.929,-0.9277,-0.9266,-0.9247,-0.9359,0,0,0,0,0,-0.8216,-0.8281,-0.8433,-0.847,-0.8515,-0.8646,-0.8694,-0.877,-0.8872,-0.8912,-0.9013,-0.9109,-0.9188,-0.9237,-0.9318,-0.9366,-0.9399,-0.9376,-0.9365,-0.9355,-0.9355,-0.9386,-0.9377,-0.947,-0.947,-0.947,0,0,-0.8163,-0.8269,-0.8302,-0.8444,-0.8525,-0.859,-0.8679,-0.8743,-0.8793,-0.8922,-0.8996,-0.9073,-0.9189,-0.9249,-0.928,-0.931,-0.9337,-0.9352,-0.9343,-0.9348,-0.9382,-0.9373,-0.9365,-0.9468,-0.9468,-0.9469,0,0,-0.8101,-0.8188,-0.8228,-0.8309,-0.8431,-0.8519,-0.8529,-0.8672,-0.8728,-0.8804,-0.8903,-0.8964,-0.9097,-0.9176,-0.9233,-0.9203,-0.9273,-0.9226,-0.9167,-0.9195,-0.9188,-0.9182,-0.917,-0.9164,-0.9226,-0.9225,-0.9225,0,-0.802,-0.8122,-0.824,-0.83,-0.8359,-0.848,-0.8522,-0.8594,-0.8736,-0.8774,-0.8807,-0.8977,-0.9064,-0.9144,-0.9136,-0.9179,-0.9194,-0.9209,-0.9179,-0.9175,-0.9171,-0.9161,-0.9157,-0.9219,-0.922,-0.922,-0.9221,0,-0.8017,-0.8086,-0.8104,-0.8239,-0.8301,-0.8351,-0.8476,-0.8525,-0.8596,-0.8681,-0.8757,-0.8866,-0.8971,-0.8997,-0.9067,-0.9087,-0.9101,-0.9155,-0.9209,-0.9153,-0.9146,-0.9144,-0.9209,-0.9212,-0.9214,-0.9215,0,0,-0.7866,-0.8067,-0.8072,-0.8135,-0.828,-0.8336,-0.8392,-0.8496,-0.8534,-0.8629,-0.8679,-0.879,-0.8841,-0.8906,-0.8987,-0.9011,-0.898,-0.9062,-0.9067,-0.9042,-0.9008,-0.8965,-0.8959,-0.9028,-0.9028,-0.9028,-0.8998,0,-0.7824,-0.7931,-0.804,-0.8108,-0.8174,-0.8291,-0.834,-0.8434,-0.8516,-0.8583,-0.8674,-0.8749,-0.8811,-0.8851,-0.8881,-0.8977,-0.8974,-0.8981,-0.9075,-0.9077,-0.904,-0.8956,-0.8911,-0.8877,-0.8996,-0.8996,-0.8995,0,-0.7789,-0.7879,-0.7953,-0.8094,-0.8125,-0.8167,-0.8272,-0.8335,-0.8445,-0.8502,-0.8576,-0.8661,-0.8727,-0.8775,-0.8867,-0.8869,-0.8915,-0.8967,-0.8969,-0.898,-0.9031,-0.8963,-0.8869,-0.8862,-0.8992,-0.8993,-0.8993,0,-0.767,-0.781,-0.7873,-0.7924,-0.8089,-0.8116,-0.8186,-0.8298,-0.8353,-0.8445,-0.8482,-0.8579,-0.8632,-0.8705,-0.8815,-0.8841,-0.8895,-0.8953,-0.8944,-0.894,-0.8948,-0.8945,-0.8857,-0.898,-0.898,-0.898,-0.898,0,-0.761,-0.7651,-0.7822,-0.786,-0.7909,-0.8035,-0.808,-0.8161,-0.826,-0.8316,-0.8424,-0.8475,-0.8618,-0.8685,-0.8772,-0.8834,-0.8858,-0.8905,-0.8927,-0.8894,-0.8888,-0.8924,-0.8928,-0.8979,-0.8979,-0.8979,-0.8979,0,-0.7484,-0.76,-0.7676,-0.7828,-0.7867,-0.7896,-0.8026,-0.8068,-0.8156,-0.8226,-0.825,-0.8388,-0.8473,-0.8591,-0.8712,-0.8771,-0.882,-0.8857,-0.8783,-0.8795,-0.8779,-0.8778,-0.871,-0.8707,-0.8831,-0.883,-0.8829,0,-0.7437,-0.7471,-0.7627,-0.7672,-0.7739,-0.7811,-0.7869,-0.7995,-0.805,-0.8179,-0.8205,-0.8299,-0.8381,-0.8512,-0.8623,-0.8716,-0.8755,-0.8725,-0.8769,-0.8735,-0.8752,-0.8748,-0.8752,-0.8712,-0.871,-0.8709,-0.8707,0,-0.7341,-0.7398,-0.7477,-0.7576,-0.7642,-0.7726,-0.7815,-0.7847,-0.7992,-0.8049,-0.8137,-0.8201,-0.8326,-0.8417,-0.8526,-0.8599,-0.8676,-0.8693,-0.8696,-0.8661,-0.8616,-0.8638,-0.8751,-0.8693,-0.8695,-0.8696,-0.8696,-0.8697,-0.7253,-0.7288,-0.7403,-0.7488,-0.7569,-0.765,-0.7697,-0.7792,-0.7869,-0.798,-0.805,-0.8136,-0.8247,-0.8401,-0.847,-0.8539,-0.857,-0.8574,-0.8575,-0.8573,-0.8561,-0.8607,-0.8559,-0.856,-0.8561,-0.8561,-0.8561,0,-0.7161,-0.7241,-0.7318,-0.744,-0.7507,-0.7577,-0.768,-0.773,-0.7804,-0.7902,-0.798,-0.8082,-0.8172,-0.8291,-0.839,-0.8422,-0.846,-0.8443,-0.8441,-0.8456,-0.8528,-0.8515,-0.841,-0.841,-0.841,-0.8411,-0.8411,-0.8411,-0.712,-0.7185,-0.7255,-0.7361,-0.7442,-0.7527,-0.7579,-0.7655,-0.7733,-0.7843,-0.7918,-0.7996,-0.8102,-0.821,-0.8295,-0.8328,-0.8358,-0.833,-0.8373,-0.8438,-0.8451,-0.8464,-0.8453,-0.8336,-0.8336,-0.8295,-0.8295,-0.8295]}]]